Presure
197 204 230 114 201 88 211 174 184 213 183 213 199 88 199 95 94 96 98 131 167 168 174 164 152 127 158 137 148 166 175 168 171
219 207 174 196 233 122 232 219 89 204 219 212 215 122 195 151 165 91 94 110 131 160 128 124 136 153 161 123 148 158 148 157 156
204 194 266 228 190 256 184 227 231 154 226 83 215 216 204 204 180 133 118 90 92 93 93 129 150 109 118 156 102 130 146 147 146
143 244 223 245 193 228 174 214 232 237 233 78 79 102 201 185 213 203 211 196 157 153 91 96 116 172 150 149 142 145 148 105 144
128 125 186 124 197 224 194 191 194 207 224 204 221 237 208 225 198 223 196 108 193 194 165 173 199 122 88 94 92 96 96 158 133
117 133 141 126 131 130 211 158 175 188 197 169 198 205 210 211 218 206 212 204 199 170 123 197 217 216 204 117 181 87 152 115 106
132 143 121 120 124 129 131 123 174 210 159 172 201 200 203 201 204 216 217 220 213 183 142 205 211 161 215 205 208 202 191 193 194
112 139 146 169 117 124 115 133 112 123 149 184 147 134 138 233 207 204 212 203 213 147 204 212 201 211 215 206 215 215 214 107 207
152 137 181 126 117 148 132 127 160 139 126 168 181 188 149 147 157 216 234 154 133 126 134 194 195 206 133 140 200 203 202 201 211
162 148 176 169 138 145 127 132 133 156 123 126 125 125 129 119 167 156 119 213 155 137 149 120 153 193 168 248 232 279 281 275 267
126 176 152 172 142 155 175 148 152 125 170 135 147 128 133 161 120 115 129 134 118 130 183 203 173 125 128 202 171 136 146 142 190
163 176 132 149 176 138 137 135 172 179 148 150 109 140 122 133 125 133 124 160 98 138 128 118 133 154 117 142 145 142 131 204 162
134 116 142 148 149 152 128 131 130 141 137 171 165 176 146 161 144 133 118 137 108 132 125 115 122 132 134 139 166 145 162 142 142
162 135 137 147 144 145 132 151 169 165 180 169 167 165 146 161 170 166 153 164 144 155 130 127 132 118 107 170 133 131 115 93 113
122 140 153 134 124 123 145 170 154 148 164 180 171 181 184 173 140 153 162 178 163 134 164 161 162 164 162 156 161 162 153 189 184
117 124 138 174 110 111 180 123 176 125 131 139 165 165 157 156 171 171 148 171 133 152 158 153 143 124 129 144 150 154 154 124 142
133 150 151 115 107 131 154 129 122 175 180 124 169 165 159 172 175 162 136 162 162 172 133 129 108 147 149 138 132 124 142 128 125
139 140 139 132 139 145 161 142 154 150 145 125 115 141 147 166 173 166 149 134 165 137 148 144 174 160 131 121 123 127 140 134 135
112 115 131 126 123 128 149 153 130 118 141 139 130 157 135 119 162 162 167 152 129 132 161 152 131 130 133 124 116 136 116 131 122
131 134 157 147 139 130 146 153 136 158 195 123 164 138 165 127 172 168 144 157 136 134 132 119 127 129 129 132 128 110 111 125 126
Wind_Speed
33 30 40 28 39 24 41 38 38 45 40 54 53 21 55 23 23 21 21 38 57 56 58 51 37 40 42 39 38 46 51 45 46
32 32 24 30 39 29 43 47 26 44 43 51 54 35 56 40 50 25 25 29 37 50 42 39 36 48 50 35 40 48 42 42 43
12 19 20 30 29 37 31 35 32 30 42 21 46 50 56 58 52 37 34 27 27 28 28 40 48 32 36 49 31 41 45 45 44
21 12 19 14 20 26 21 26 31 30 26 25 26 36 48 42 55 53 55 47 51 52 31 33 41 62 48 48 49 49 48 32 47
23 26 12 28 28 21 33 29 32 27 25 31 27 32 41 44 48 48 52 37 57 60 55 62 60 43 30 34 33 33 33 52 46
32 22 27 24 18 19 23 20 26 28 34 28 32 32 30 34 34 41 50 52 56 54 41 61 53 56 64 44 58 34 57 42 41
27 21 35 34 29 22 20 30 26 23 22 27 35 35 36 39 40 38 42 47 50 56 47 59 56 50 57 62 65 70 63 67 68
37 28 30 21 39 33 41 29 38 32 25 24 25 26 28 36 38 43 46 50 54 48 55 56 57 58 59 61 62 65 66 44 71
24 31 23 41 43 26 30 33 27 25 30 27 27 28 32 31 31 36 41 35 34 37 35 51 52 56 41 42 57 59 59 59 64
27 31 27 32 32 35 38 34 34 33 36 35 35 32 32 41 34 33 40 38 37 37 39 43 37 46 42 55 49 44 45 49 53
44 29 33 32 33 31 31 37 37 42 32 37 35 41 38 34 45 50 42 38 45 38 42 39 44 42 41 43 44 42 43 49 43
34 34 45 33 35 37 38 38 35 31 38 44 45 45 50 42 51 42 47 41 47 45 44 49 44 44 52 46 46 43 47 46 50
46 45 41 38 38 38 46 43 42 44 41 38 40 35 50 45 49 44 55 47 55 46 56 57 55 46 48 49 44 50 53 52 54
46 50 48 44 45 43 46 43 43 42 39 43 44 47 50 43 43 44 51 46 53 47 50 51 51 57 62 47 51 56 53 50 50
52 54 49 51 49 51 48 46 47 48 45 42 44 42 41 45 52 56 51 43 46 51 49 50 51 50 53 56 52 50 51 52 54
56 55 55 54 54 55 49 53 50 52 53 53 51 53 51 57 50 50 56 49 55 59 55 60 56 53 55 63 63 61 58 54 63
62 59 54 56 60 58 53 58 57 52 52 58 54 55 57 54 53 57 58 57 55 55 59 57 66 61 64 64 62 58 64 58 56
68 66 62 62 62 61 59 63 61 61 60 62 62 61 61 58 58 59 65 64 59 61 60 63 61 64 63 60 62 64 65 66 67
69 69 71 67 65 66 67 67 69 66 67 68 68 64 66 65 64 64 63 68 66 67 65 69 67 65 65 65 62 77 59 74 66
77 77 76 76 74 72 73 73 73 71 69 69 68 72 67 72 66 69 75 72 74 74 73 66 69 71 70 75 76 61 61 75 74
Wind_Direction
218 217 222 230 224 240 225 229 230 227 234 227 228 230 226 226 223 224 227 230 236 240 239 245 247 236 255 239 248 257 259 258 259
213 215 217 220 227 239 223 225 246 234 231 228 227 230 226 229 229 227 231 234 236 238 236 237 240 247 248 244 244 255 249 254 256
200 215 230 225 221 229 225 221 223 239 235 232 227 233 232 236 231 239 237 233 233 233 236 244 240 236 242 249 243 242 249 249 249
202 172 203 199 231 225 239 204 229 241 235 240 237 237 232 239 237 237 241 247 243 240 240 238 242 249 248 248 249 246 248 245 253
203 208 192 216 219 196 221 228 222 215 213 221 230 237 234 240 232 244 233 245 237 241 247 243 252 245 248 243 247 242 247 256 255
231 212 215 208 210 211 207 222 225 231 226 240 228 224 231 235 242 249 237 237 239 242 244 247 252 253 254 250 254 255 254 255 251
230 244 224 225 215 214 221 232 224 231 233 231 234 238 235 233 235 236 240 241 241 245 252 248 250 255 255 254 254 255 261 260 259
242 240 226 217 231 220 238 219 244 225 240 229 236 231 230 240 239 245 240 242 241 251 247 247 251 252 252 254 253 254 257 258 263
244 239 220 228 237 252 232 229 239 250 229 236 226 229 229 243 243 244 247 242 240 243 243 256 259 257 248 249 263 264 265 266 264
238 229 241 234 249 245 232 234 246 229 232 232 232 242 235 231 237 241 234 250 243 245 250 245 253 253 254 261 265 265 265 264 262
237 250 235 249 234 245 239 247 244 244 237 258 241 241 240 246 237 240 257 252 239 250 248 256 254 248 250 262 258 255 257 259 264
254 248 238 245 248 231 233 236 251 242 248 250 254 258 241 253 245 256 242 249 260 262 241 245 257 255 252 263 264 256 255 269 262
247 242 246 246 252 254 237 236 241 247 243 250 249 248 254 249 252 257 245 262 259 258 249 255 250 259 262 266 261 266 267 267 268
250 251 249 254 252 246 246 250 253 249 254 256 252 252 254 252 252 251 254 253 257 253 258 255 260 261 261 260 264 263 266 266 267
245 251 253 252 251 246 253 258 253 253 253 253 254 255 256 253 254 254 254 257 256 254 251 252 254 261 257 259 261 261 265 271 268
246 249 254 256 243 245 258 255 260 258 258 256 251 250 251 250 252 253 257 256 257 255 258 257 259 260 264 265 264 265 265 269 265
253 255 254 247 247 250 254 259 257 258 258 258 254 254 251 253 254 252 260 252 258 257 263 258 258 259 260 263 270 271 270 277 276
254 254 252 254 252 252 251 256 253 257 257 260 258 257 258 254 255 255 254 259 255 260 260 257 261 262 270 271 274 275 269 271 272
254 254 256 253 252 253 255 254 257 257 257 256 259 260 259 263 255 256 254 254 260 261 255 256 264 263 266 270 273 268 276 273 276
252 254 255 256 256 253 255 255 256 254 266 259 255 258 260 260 261 257 255 255 259 259 259 262 263 264 265 265 268 274 275 276 276